K5NWZ Weather Reports


Display with metric or nautical units.
time (UTC)temp
F
wind
direction
speed
MPH
gust
MPH
rain 1hr
in
rain 24hr
in
rain mn
in
humidity
%
barometer
mb
20260505003922 52 283 3.0 6.0 0.07 0.05 0.05 78 1018.8
20260505003419 53 311 2.0 6.0 0.07 0.05 0.05 76 1018.9
20260505002915 54 316 4.0 8.0 0.00 0.04 0.04 70 1018.8
20260505002411 54 313 0.0 1.0 0.00 0.04 0.04 75 1018.8
20260505001910 54 301 0.0 1.0 0.00 0.04 0.04 76 1018.9
20260505001407 54 273 1.0 2.0 0.00 0.04 0.04 73 1018.5
20260505000904 53 304 1.0 2.0 0.00 0.04 0.04 80 1018.9
20260505000402 53 299 0.0 1.0 0.00 0.04 0.04 80 1018.7
20260504235858 53 283 1.0 1.0 0.00 0.04 0.04 76 1018.7
20260504235355 53 106 1.0 1.0 0.00 0.04 0.04 79 1018.4
20260504234851 53 239 1.0 1.0 0.07 0.04 0.04 76 1018.4
20260504234349 54 176 2.0 3.0 0.12 0.04 0.04 74 1018.3
20260504233846 53 54 2.0 3.0 0.05 0.03 0.03 67 1018.7
20260504233341 54 281 1.0 2.0 0.07 0.02 0.02 65 1018.4
20260504232838 56 195 3.0 7.0 0.05 0.01 0.01 60 1018.4
20260504232336 58 136 8.0 10.0 0.05 0.01 0.01 56 1018.8
20260504231832 61 286 2.0 6.0 0.00 0.00 0.00 46 1018.3
20260504231329 62 296 0.0 1.0 0.00 0.00 0.00 43 1018.1
20260504230825 62 290 2.0 7.0 0.00 0.00 0.00 40 1017.5
20260504230323 62 308 0.0 2.0 0.00 0.00 0.00 38 1017.6
20260504225822 63 262 2.0 6.0 0.00 0.00 0.00 37 1017.6
20260504225317 63 303 0.0 2.0 0.00 0.00 0.00 37 1017.1
20260504224815 63 306 1.0 6.0 0.00 0.00 0.00 36 1017.0
20260504224312 64 321 4.0 8.0 0.00 0.00 0.00 36 1016.8
20260504223808 64 288 4.0 10.0 0.00 0.00 0.00 36 1017.0
20260504223304 65 288 3.0 7.0 0.00 0.00 0.00 35 1016.9
20260504222801 66 346 5.0 9.0 0.00 0.00 0.00 33 1016.9
20260504222258 67 333 5.0 8.0 0.00 0.00 0.00 34 1016.9
20260504221755 67 264 2.0 10.0 0.00 0.00 0.00 35 1017.1
20260504221252 67 311 5.0 7.0 0.00 0.00 0.00 34 1016.8
20260504220749 66 318 6.0 7.0 0.00 0.00 0.00 35 1017.1
20260504220246 66 318 1.0 3.0 0.00 0.00 0.00 37 1017.0
20260504215743 64 12 3.0 3.0 0.00 0.00 0.00 38 1017.3
20260504215240 64 0 1.0 1.0 0.00 0.00 0.00 37 1017.6
20260504214736 63 296 3.0 4.0 0.00 0.00 0.00 38 1017.6
20260504214232 63 359 2.0 2.0 0.00 0.00 0.00 40 1017.6
20260504213729 62 294 2.0 3.0 0.00 0.00 0.00 40 1017.6
20260504213225 62 12 1.0 2.0 0.00 0.00 0.00 39 1017.5
20260504212723 62 352 0.0 3.0 0.00 0.00 0.00 39 1017.8
20260504212219 62 315 1.0 1.0 0.00 0.00 0.00 40 1017.7
20260504211717 62 273 2.0 4.0 0.00 0.00 0.00 40 1017.7
20260504211213 62 306 3.0 6.0 0.00 0.00 0.00 41 1017.7
20260504210710 62 285 4.0 10.0 0.00 0.00 0.00 41 1017.8
20260504210207 63 315 10.0 16.0 0.00 0.00 0.00 40 1017.6
20260504205704 64 278 9.0 13.0 0.00 0.00 0.00 37 1017.6
20260504205201 64 301 5.0 15.0 0.00 0.00 0.00 36 1017.5
20260504204700 64 325 6.0 8.0 0.00 0.00 0.00 35 1017.7
20260504204159 64 146 3.0 10.0 0.00 0.00 0.00 37 1017.6
20260504203657 64 356 4.0 8.0 0.00 0.00 0.00 35 1017.4
20260504203154 63 293 2.0 13.0 0.00 0.00 0.00 34 1017.1
20260504202649 63 287 5.0 6.0 0.00 0.00 0.00 36 1017.3
20260504202146 63 303 5.0 13.0 0.00 0.00 0.00 36 1017.4
20260504201643 63 291 6.0 10.0 0.00 0.00 0.00 37 1017.1
20260504201140 62 30 5.0 15.0 0.00 0.00 0.00 38 1017.7
20260504200637 62 302 4.0 11.0 0.00 0.00 0.00 37 1017.6
20260504200134 62 325 6.0 15.0 0.00 0.00 0.00 37 1017.7
20260504195630 63 312 9.0 24.0 0.00 0.00 0.00 38 1017.7
20260504195126 64 266 6.0 17.0 0.00 0.00 0.00 35 1017.4
20260504194623 65 306 5.0 15.0 0.00 0.00 0.00 32 1017.4
20260504194119 66 323 10.0 16.0 0.00 0.00 0.00 28 1017.3
20260504193615 67 314 5.0 11.0 0.00 0.00 0.00 27 1017.0
20260504193114 67 327 3.0 8.0 0.00 0.00 0.00 29 1017.0
20260504192612 67 281 3.0 11.0 0.00 0.00 0.00 29 1016.9
20260504192110 68 305 3.0 6.0 0.00 0.00 0.00 29 1016.9
20260504191608 68 301 1.0 8.0 0.00 0.00 0.00 28 1016.8
20260504191103 68 269 1.0 4.0 0.00 0.00 0.00 29 1016.7
20260504190600 68 222 3.0 9.0 0.00 0.00 0.00 27 1016.6
20260504190056 69 275 4.0 6.0 0.00 0.00 0.00 27 1016.7
20260504185553 69 234 4.0 7.0 0.00 0.00 0.00 27 1016.4
20260504185050 70 296 4.0 6.0 0.00 0.00 0.00 27 1016.4
20260504184545 70 247 3.0 7.0 0.00 0.00 0.00 27 1016.3
20260504184041 70 288 3.0 7.0 0.00 0.00 0.00 27 1016.7
20260504183538 71 239 7.0 9.0 0.00 0.00 0.00 26 1016.6
20260504183036 70 233 2.0 3.0 0.00 0.00 0.00 27 1016.7
20260504182532 70 289 2.0 4.0 0.00 0.00 0.00 26 1016.7
20260504182030 70 309 2.0 4.0 0.00 0.00 0.00 26 1016.7
20260504181527 71 251 5.0 8.0 0.00 0.00 0.00 25 1016.8
20260504181026 70 253 1.0 7.0 0.00 0.00 0.00 26 1016.6
20260504180524 70 261 2.0 3.0 0.00 0.00 0.00 25 1016.8
20260504180022 71 256 4.0 6.0 0.00 0.00 0.00 25 1016.7
20260504175519 70 266 2.0 4.0 0.00 0.00 0.00 26 1016.7
20260504175016 70 222 2.0 3.0 0.00 0.00 0.00 27 1016.8
20260504174514 70 220 1.0 6.0 0.00 0.00 0.00 27 1016.7
20260504174011 70 259 2.0 2.0 0.00 0.00 0.00 26 1016.8
20260504173507 70 229 4.0 6.0 0.00 0.00 0.00 26 1016.9
20260504173005 70 229 4.0 6.0 0.00 0.00 0.00 26 1017.1
20260504172501 70 190 2.0 4.0 0.00 0.00 0.00 27 1016.8
20260504171957 70 196 3.0 6.0 0.00 0.00 0.00 26 1017.1
20260504171454 71 242 2.0 3.0 0.00 0.00 0.00 26 1017.0
20260504170951 71 266 2.0 2.0 0.00 0.00 0.00 25 1017.0
20260504170447 71 198 2.0 3.0 0.00 0.00 0.00 25 1017.0
20260504160407 67 277 2.0 3.0 0.00 0.00 0.00 27 1017.1
20260504150831 61 208 1.0 3.0 0.00 0.00 0.00 36 1017.3
20260504150328 60 280 1.0 4.0 0.00 0.00 0.00 36 1017.6
20260504141258 54 333 0.0 0.0 0.00 0.00 0.00 49 1017.8
20260504140754 52 343 1.0 1.0 0.00 0.00 0.00 56 1018.0
20260504140250 51 342 0.0 0.0 0.00 0.00 0.00 57 1017.8
20260504130719 45 311 0.0 0.0 0.00 0.00 0.00 69 1018.1
20260504130214 45 338 0.0 1.0 0.00 0.00 0.00 70 1018.1
20260504120139 41 308 0.0 0.0 0.00 0.00 0.00 69 1017.7
20260504110606 42 285 0.0 0.0 0.00 0.00 0.00 73 1018.2
20260504100528 42 307 0.0 0.0 0.00 0.00 0.00 69 1018.4
20260504081921 46 286 0.0 0.0 0.00 0.00 0.00 51 1018.8
20260504081418 47 294 0.0 0.0 0.00 0.00 0.00 51 1018.9
20260504080914 47 289 0.0 0.0 0.00 0.00 0.00 49 1019.1
20260504080411 47 291 0.0 0.0 0.00 0.00 0.00 50 1019.2
20260504070338 51 304 0.0 1.0 0.00 0.00 0.00 46 1019.6
20260504050727 56 314 0.0 1.0 0.00 0.00 0.00 36 1020.1
20260504050224 57 310 1.0 1.0 0.00 0.00 0.00 36 1020.1
20260504045721 57 297 2.0 2.0 0.00 0.00 0.00 35 1020.1
20260504045215 58 311 1.0 2.0 0.00 0.00 0.00 34 1019.9
20260504044713 58 306 1.0 2.0 0.00 0.00 0.00 34 1019.9
20260504044210 58 316 1.0 2.0 0.00 0.00 0.00 34 1019.6
20260504043707 59 300 0.0 3.0 0.00 0.00 0.00 35 1019.8
20260504043204 59 305 1.0 3.0 0.00 0.00 0.00 35 1019.9
20260504042701 59 313 1.0 1.0 0.00 0.00 0.00 34 1019.8
20260504042158 60 327 2.0 3.0 0.00 0.00 0.00 34 1019.9
20260504041654 60 321 1.0 3.0 0.00 0.00 0.00 33 1019.8
20260504041150 60 309 1.0 2.0 0.00 0.00 0.00 32 1019.9
20260504040647 61 290 2.0 4.0 0.00 0.00 0.00 32 1019.9
20260504040144 62 330 2.0 4.0 0.00 0.00 0.00 31 1020.2
20260504035640 62 41 3.0 6.0 0.00 0.00 0.00 30 1020.1
20260504035137 61 47 4.0 6.0 0.00 0.00 0.00 30 1019.8
20260504034635 62 312 0.0 3.0 0.00 0.00 0.00 28 1019.7
20260504034132 63 325 2.0 3.0 0.00 0.00 0.00 27 1019.7
20260504033630 63 325 0.0 3.0 0.00 0.00 0.00 27 1019.6
20260504033127 63 296 1.0 3.0 0.00 0.00 0.00 29 1019.6
20260504032623 64 296 0.0 0.0 0.00 0.00 0.00 28 1019.5
20260504032121 62 338 3.0 7.0 0.00 0.00 0.00 30 1019.4
20260504031618 62 283 0.0 1.0 0.00 0.00 0.00 30 1018.9
20260504031114 62 232 0.0 1.0 0.00 0.00 0.00 30 1019.1
20260504030611 62 268 0.0 1.0 0.00 0.00 0.00 31 1018.9
20260504030108 62 287 0.0 1.0 0.00 0.00 0.00 32 1019.0
20260504025604 63 271 0.0 0.0 0.00 0.00 0.00 30 1019.0
20260504025101 63 271 0.0 0.0 0.00 0.00 0.00 31 1018.8
20260504024558 64 271 0.0 1.0 0.00 0.00 0.00 30 1018.7
20260504024055 64 260 0.0 1.0 0.00 0.00 0.00 29 1018.8
20260504023551 64 301 0.0 1.0 0.00 0.00 0.00 29 1018.9
20260504023047 65 302 0.0 0.0 0.00 0.00 0.00 29 1018.8
20260504022543 65 309 0.0 1.0 0.00 0.00 0.00 28 1018.9
20260504022041 66 262 0.0 1.0 0.00 0.00 0.00 28 1018.9
20260504021538 66 240 0.0 1.0 0.00 0.00 0.00 28 1018.9
20260504021035 66 302 0.0 0.0 0.00 0.00 0.00 27 1018.8
20260504020532 67 289 0.0 4.0 0.00 0.00 0.00 26 1018.9
20260504020028 68 273 1.0 1.0 0.00 0.00 0.00 26 1018.7
20260504015524 68 264 1.0 1.0 0.00 0.00 0.00 25 1018.5
20260504015020 68 253 1.0 2.0 0.00 0.00 0.00 25 1018.7
20260504014517 69 241 2.0 3.0 0.00 0.00 0.00 25 1018.8
20260504014014 69 301 0.0 2.0 0.00 0.00 0.00 25 1018.4
20260504013512 69 293 0.0 2.0 0.00 0.00 0.00 24 1018.7
20260504013009 69 255 3.0 4.0 0.00 0.00 0.00 24 1018.5
20260504012506 70 296 1.0 2.0 0.00 0.00 0.00 24 1018.8
20260504012004 70 311 0.0 0.0 0.00 0.00 0.00 24 1018.8
20260504011500 69 181 2.0 4.0 0.00 0.00 0.00 25 1018.9
20260504010955 69 228 2.0 3.0 0.00 0.00 0.00 25 1018.9
20260504010452 69 279 1.0 3.0 0.00 0.00 0.00 25 1018.7
20260504005948 69 275 0.0 1.0 0.00 0.00 0.00 25 1019.0
20260504005445 69 300 0.0 1.0 0.00 0.00 0.00 25 1018.8
20260504004942 69 243 0.0 2.0 0.00 0.00 0.00 25 1018.9
20260504004440 69 304 1.0 3.0 0.00 0.00 0.00 24 1018.5